Regional Weather Roundup
Issued by NWS Sioux Falls, SD

Home | Current Version | Previous Version | Text Only | Print | Product List | Glossary On
Versions: 1 2 3 4 5 6 7 8 9 10 11 12 13 14 15 16 17 18 19 20 21 22 23 24 25 26 27 28 29 30 31 32 33 34 35 36 37 38 39 40 41 42 43 44 45 46 47 48 49 50
000
ASUS43 KFSD 240502
RWRFSD

WEATHER ROUNDUP FOR SE SOUTH DAKOTA/SW MINNESOTA/NW IOWA
NATIONAL WEATHER SERVICE SIOUX FALLS SD
1200 AM CDT SUN SEP 24 2017

NOTE: "FAIR" INDICATES FEW OR NO CLOUDS BELOW 12,000 FEET WITH NO
SIGNIFICANT WEATHER AND OR OBSTRUCTIONS TO VISIBILITY.


SDZ038>040-050-052>070-240600-
SOUTHEAST SOUTH DAKOTA

CITY           SKY/WX    TMP DP  RH WIND       PRES   REMARKS
BROOKINGS      MOCLDY    58  56  93 E12       29.93F
CHAMBERLAIN    HVY RAIN  54  54 100 NW7       29.92R
HURON          HVY RAIN  56  56 100 VRB3      29.88F FOG
MADISON        MOCLDY    55  55 100 E10       29.93S
MITCHELL       CLOUDY    60  59  96 E6        29.88F
SIOUX FALLS    CLOUDY    60  58  92 NE10      29.92F
WINNER         RAIN      52  51  97 NW8       29.93F FOG
YANKTON        CLOUDY    59  57  93 E3        29.89F
$$

MNZ071-072-080-081-089-090-097-098-240600-
SOUTHWEST MINNESOTA

CITY           SKY/WX    TMP DP  RH WIND       PRES   REMARKS
FAIRMONT       PTCLDY    71  64  78 S9        29.94R
JACKSON        CLEAR     68  61  77 CALM      29.95R
LUVERNE        CLOUDY    63  59  88 N6        29.93S
MARSHALL       CLOUDY    56  56 100 NW10      29.96R FOG
MONTEVIDEO     CLOUDY    59  59 100 NW7       29.97R
PIPESTONE      CLOUDY    57  55  94 N6        29.96R FOG
REDWOOD FALLS  MOCLDY    63  61  93 CALM      29.92S
TRACY          FOG       57  57 100 NW9G18    29.96R VSB 1/2
WORTHINGTON    PTCLDY    62  61  96 CALM      29.93F
$$

IAZ001>003-012>014-020>022-031-032-NEZ013-014-SDZ071-240600-
NORTHWEST IOWA

CITY           SKY/WX    TMP DP  RH WIND       PRES   REMARKS
DENISON        CLOUDY    75  64  69 SE13G20   29.94S
ESTHERVILLE    CLEAR     72  64  76 S10       29.93S
LE MARS        PTCLDY    66  64  94 CALM      29.91S
ORANGE CITY    CLOUDY    70  66  88 CALM      29.92S
SHELDON        CLEAR     73  64  73 S8        29.90S
SIOUX CITY     PTCLDY    66  62  87 VRB5      29.89S
SPENCER        PTCLDY    72  63  73 SW6       29.93R
STORM LAKE     CLEAR     70  63  78 SE8       29.93F
$$

ABBREVIATIONS USED IN REMARKS
   TC - TEMPERATURE IN CELSIUS
  WCI - WIND CHILL INDEX
   HX - HEAT INDEX
  VSB - VISIBILITY





USA.gov is the U.S. government's official web portal to all federal, state and local government web resources and services.